Flag for U.S.A. Weather past 2 weeks in Dover, Delaware, U.S.A.

Now
39 °F

Clear.


Feels Like: 36 °F
Forecast: 36 / 62 °F
Wind: 5 mph from South

Location: Dover Air Force Base

Current Time: Apr 2, 2015 at 12:52:48 AM

Latest Report: Apr 1, 2015 at 11:58 PM


Visibility: 10 mi

Pressure: 30.25 "Hg

Humidity: 86%

Dew point: 36 °F

Location of DoverLocation

Historic Weather in Dover — Graph

°F

Dover temperature yesterday

Maximum temperature yesterday: 55 °F (at 5:58 PM)
Minimum temperature yesterday: 35 °F (at 6:58 AM)
Average temperature yesterday: 44 °F

Past Weeks' High & Low Weather Summary

 TemperatureHumidityPressure
High69 °F (Mar 26, 1:58 PM)100% (Mar 20, 8:59 AM)30.42 "Hg (Mar 20, 8:59 AM)
Low25 °F (Mar 29, 4:58 AM)23% (Mar 18, 3:58 PM)29.57 "Hg (Mar 26, 7:58 PM)
Average41 °F67%30.07 "Hg
* Reported Mar 17 11:58 PM — Apr 1 11:58 PM, Dover, Weather by CustomWeather, © 2015

Note: Actual official high and low records may vary slightly from our data, if they occured in-between our weather recording intervals... More about our weather records

Advertising

Dover weather history for previous 24 hours

 ConditionsComfort  
Time TempWeatherWind HumidityBarometerVisibility
11:58 PM
Wed, Apr 1
39 °FClear.5 mph86%30.25 "Hg10 mi
10:58 PM40 °FClear.5 mph88%30.25 "Hg10 mi
9:58 PM43 °FClear.1 mph62%30.23 "Hg10 mi
8:58 PM46 °FClear.1 mph53%30.19 "Hg10 mi
7:58 PM49 °FSunny.5 mph45%30.15 "Hg10 mi
6:58 PM53 °FSunny.8 mph35%30.14 "Hg10 mi
5:58 PM55 °FSunny.9 mph32%30.12 "Hg10 mi
4:58 PM55 °FSunny.9 mph34%30.10 "Hg10 mi
3:58 PM55 °FSunny.14 mph35%30.10 "Hg10 mi
2:58 PM53 °FSunny.14 mph37%30.10 "Hg10 mi
1:58 PM52 °FSunny.15 mph39%30.10 "Hg10 mi
12:58 PM50 °FSunny.8 mph44%30.09 "Hg10 mi
11:58 AM47 °FSunny.14 mph49%30.10 "Hg10 mi
10:58 AM45 °FSunny.15 mph55%30.10 "Hg10 mi
9:55 AM43 °FSunny.14 mph62%30.09 "Hg10 mi
8:58 AM40 °FSunny.14 mph69%30.11 "Hg10 mi
7:58 AM36 °FSunny.10 mph79%30.08 "Hg10 mi
6:58 AM35 °FClear.13 mph82%30.04 "Hg10 mi
5:58 AM35 °FClear.8 mph81%30.00 "Hg10 mi
4:58 AM36 °FClear.8 mph83%29.96 "Hg10 mi
3:58 AM36 °FClear.10 mphN/A29.95 "Hg10 mi
2:58 AM36 °FClear.13 mph88%29.92 "Hg10 mi
1:58 AM37 °FClear.15 mph96%29.90 "Hg10 mi
12:58 AM39 °FPartly cloudy.15 mph97%29.88 "Hg10 mi
Weather by CustomWeather, © 2015

See weather overviewHow to use our weather pages